Regional Weather Roundup
Issued by NWS

Home | Current Version | Previous Version | Text Only | Print | Product List | Glossary On
Versions: 1 2 3 4 5 6 7 8 9 10 11 12 13 14 15 16 17 18 19 20 21 22 23 24 25 26 27 28 29 30 31 32 33 34 35 36 37 38 39 40 41 42 43 44 45 46 47 48 49 50
000
ASUS42 KFFC 110110
RWRGA
WEATHER ROUNDUP FOR GEORGIA
NATIONAL WEATHER SERVICE PEACHTREE CITY GA
800 PM EST SUN DEC 10 2017

NOTE: "FAIR" INDICATES FEW OR NO CLOUDS BELOW 12,000 FEET WITH NO
SIGNIFICANT WEATHER AND/OR OBSTRUCTIONS TO VISIBILITY.

* = USE WITH CAUTION. THE STATIONS MARKED WITH AN ASTERISK MAY NOT
REPORT WEATHER SUCH AS PRECIPITATION, FOG, OR THUNDER AND ARE NOT
QUALITY CONTROLLED BY NWS.

THE REMARK "TC" DENOTES TEMPERATURE READING IN DEGREES CELSIUS.

GAZ001>058-110200-
NORTH GEORGIA

CITY           SKY/WX    TMP DP  RH WIND       PRES   REMARKS
ATLANTA        CLEAR     37  26  64 SW5       30.22F WCI  33
ATHENS         CLEAR     35  24  64 VRB5      30.20F WCI  31
CHAMBLEE       CLEAR     35  25  66 SW6       30.21F WCI  30
PEACHTREE CITY CLEAR     30  27  88 CALM      30.25S
ROME           CLEAR     33  27  78 S5        30.21S WCI  29
WEST ATLANTA   CLEAR     36  27  69 CALM      30.23S
GAINESVILLE    CLEAR     35  24  64 W9        30.19F WCI  28
CARTERSVILLE   CLEAR     32  27  81 CALM      30.23S


CITY           SKY/WX    TMP DP  RH WIND       PRES   REMARKS
DALTON*        CLEAR     36  27  69 SE5       30.23R WCI  32
LAWRENCEVILLE* CLEAR     31  25  78 W5        30.20F WCI  26
MARIETTA       CLEAR     34  25  70 SW5       30.20F WCI  30
KENNESAW*      CLEAR     33  26  75 SW3       30.24S
CANTON*        CLEAR     36  27  69 W3        30.21S
$$

GAZ059>098-102>109-110200-
CENTRAL GEORGIA

CITY           SKY/WX    TMP DP  RH WIND       PRES   REMARKS
AUGUSTA-BUSH   CLEAR     34  29  82 CALM      30.22S
AUGUSTA-DANIEL CLEAR     42  26  53 CALM      30.22S
COLUMBUS       CLEAR     42  26  53 W7        30.28R
MACON          CLEAR     36  28  73 W5        30.26R WCI  32
ROBINS AFB     CLEAR     37  30  76 CALM      30.25R


CITY           SKY/WX    TMP DP  RH WIND       PRES   REMARKS
LAGRANGE*      CLEAR     32  29  90 CALM      30.27S
SYLVANIA*      CLEAR     37  35  91 CALM      30.25S
MILLEDGEVILLE* CLEAR     36  32  87 CALM      30.25R
$$

GAZ099>101-110>166-110200-
SOUTH GEORGIA

CITY           SKY/WX    TMP DP  RH WIND       PRES   REMARKS
SAVANNAH       CLEAR     37  32  82 SW3       30.26S
VALDOSTA       CLEAR     33  30  88 CALM      30.30R
ALMA           CLEAR     34  32  92 CALM      30.27R
ST SIMONS      CLEAR     41  34  76 CALM      30.27S
FT STEWART     CLEAR     35  31  85 CALM      30.25S
ALBANY         CLEAR     37  30  75 CALM      30.32R
HUNTER AFB     CLEAR     37  31  76 CALM      30.23S
MOODY AFB      CLEAR     37  32  82 SW3       30.27S
BRUNSWICK      CLEAR     36  32  87 CALM      30.29R


CITY           SKY/WX    TMP DP  RH WIND       PRES   REMARKS
BAINBRIDGE*    CLEAR     37  36  93 CALM      30.32R
MOULTRIE*      CLEAR     39  36  87 CALM      30.30R
VIDALIA*       CLEAR     41  32  70 W3        30.25F
WAYCROSS*      CLEAR     36  32  87 SW3       30.28S
DOUGLAS*       CLEAR     36  32  87 CALM      30.29S
$$



USA.gov is the U.S. government's official web portal to all federal, state and local government web resources and services.